When you browse on this site, cookies collect data to enhance your experience and personalize the content and advertising you see.
Visit our Privacy Policy to learn more. By continuing to use the site, you agree to this use of cookies and data.
  • Em Portugal
  • Lista de países
  • Para 7 dias
  • Temperatura da água
  • Mapas de satélite
  • Mapa do tempo
  • Widgets de tempo
  • user-avatar
    Iniciar Sessão

    Previsão horária em Mayrhofen

    Hoje, 22 Julho, Segunda-feira

    Tempo Temperatura Precipitação Vento Pressão Humidade
    00:00 +10°C° 0 mm 1 m/s 624 mmHg 91%
    01:00 +10°C° 0 mm 1 m/s 624 mmHg 90%
    02:00 +9°C° 0 mm 1 m/s 623 mmHg 90%
    03:00 +9°C° 0 mm 1 m/s 623 mmHg 89%
    04:00 +9°C° 0 mm 1 m/s 623 mmHg 88%
    05:00 +11°C° 0 mm 1 m/s 624 mmHg 86%
    06:00 +13°C° 0 mm 1 m/s 625 mmHg 83%
    07:00 +15°C° 0 mm 1 m/s 626 mmHg 79%
    08:00 +18°C° 0 mm 1 m/s 627 mmHg 70%
    09:00 +20°C° 0 mm 1 m/s 627 mmHg 62%
    10:00 +21°C° 0 mm 1 m/s 628 mmHg 53%
    11:00 +22°C° 0 mm 1 m/s 628 mmHg 48%
    12:00 +23°C° 0 mm 2 m/s 628 mmHg 44%
    13:00 +24°C° 0 mm 2 m/s 628 mmHg 40%
    14:00 +24°C° 0 mm 2 m/s 628 mmHg 41%
    15:00 +24°C° 0 mm 2 m/s 628 mmHg 43%
    16:00 +22°C° 0 mm 3 m/s 628 mmHg 45%
    17:00 +21°C° 0 mm 2 m/s 627 mmHg 55%
    18:00 +19°C° 0 mm 2 m/s 626 mmHg 66%
    19:00 +17°C° 0 mm 2 m/s 626 mmHg 77%
    20:00 +16°C° 0 mm 1 m/s 625 mmHg 82%
    21:00 +14°C° 0 mm 1 m/s 625 mmHg 87%
    22:00 +12°C° 0 mm 1 m/s 625 mmHg 92%
    23:00 +12°C° 0 mm 1 m/s 624 mmHg 92%

    Amanhã, 23 Julho, Terça-feira

    Tempo Temperatura Precipitação Vento Pressão Humidade
    00:00 +12°C° 0 mm 1 m/s 624 mmHg 92%
    01:00 +11°C° 0 mm 1 m/s 624 mmHg 92%
    02:00 +11°C° 0 mm 1 m/s 624 mmHg 92%
    03:00 +11°C° 0 mm 1 m/s 623 mmHg 91%
    04:00 +10°C° 0 mm 1 m/s 623 mmHg 90%
    05:00 +11°C° 0 mm 0 m/s 624 mmHg 83%
    06:00 +14°C° 0 mm 0 m/s 625 mmHg 76%
    07:00 +16°C° 0 mm 0 m/s 625 mmHg 68%
    08:00 +18°C° 0 mm 0 m/s 626 mmHg 60%
    09:00 +22°C° 0 mm 1 m/s 627 mmHg 51%
    10:00 +24°C° 0 mm 1 m/s 627 mmHg 42%
    11:00 +24°C° 0 mm 1 m/s 627 mmHg 40%
    12:00 +25°C° 0 mm 1 m/s 627 mmHg 37%
    13:00 +26°C° 0 mm 2 m/s 627 mmHg 34%
    14:00 +26°C° 0 mm 2 m/s 627 mmHg 36%
    15:00 +26°C° 0 mm 2 m/s 627 mmHg 37%
    16:00 +26°C° 0 mm 2 m/s 627 mmHg 39%
    17:00 +24°C° 0 mm 2 m/s 626 mmHg 49%
    18:00 +22°C° 0 mm 1 m/s 625 mmHg 59%
    19:00 +21°C° 0 mm 1 m/s 625 mmHg 70%
    20:00 +18°C° 0 mm 1 m/s 624 mmHg 74%
    21:00 +15°C° 0 mm 1 m/s 623 mmHg 79%
    22:00 +12°C° 0 mm 0 m/s 622 mmHg 84%
    23:00 +12°C° 0 mm 0 m/s 622 mmHg 84%

    Depois de amanhã, 24 Julho, Quarta-feira

    Tempo Temperatura Precipitação Vento Pressão Humidade
    00:00 +12°C° 0 mm 0 m/s 622 mmHg 83%
    01:00 +12°C° 0 mm 0 m/s 622 mmHg 83%
    02:00 +12°C° 0 mm 1 m/s 621 mmHg 83%
    03:00 +12°C° 0 mm 1 m/s 621 mmHg 83%
    04:00 +12°C° 0 mm 1 m/s 621 mmHg 83%
    05:00 +13°C° 0 mm 0 m/s 622 mmHg 78%
    06:00 +16°C° 0 mm 0 m/s 623 mmHg 72%
    07:00 +18°C° 0 mm 0 m/s 624 mmHg 67%
    08:00 +20°C° 0 mm 0 m/s 624 mmHg 60%
    09:00 +24°C° 0 mm 1 m/s 625 mmHg 53%
    10:00 +26°C° 0 mm 1 m/s 626 mmHg 46%
    11:00 +26°C° 0 mm 1 m/s 626 mmHg 42%
    12:00 +27°C° 0 mm 1 m/s 626 mmHg 39%
    13:00 +28°C° 0 mm 2 m/s 626 mmHg 36%
    14:00 +27°C° 0 mm 2 m/s 626 mmHg 38%
    15:00 +27°C° 0 mm 2 m/s 625 mmHg 40%
    16:00 +27°C° 0 mm 2 m/s 625 mmHg 43%
    17:00 +25°C° 0.3 mm 2 m/s 625 mmHg 55%
    18:00 +23°C° 0.3 mm 1 m/s 624 mmHg 67%
    19:00 +21°C° 0.3 mm 1 m/s 623 mmHg 79%
    20:00 +20°C° 0.7 mm 1 m/s 623 mmHg 82%
    21:00 +18°C° 0.7 mm 1 m/s 623 mmHg 85%
    22:00 +16°C° 0.7 mm 1 m/s 623 mmHg 88%
    23:00 +16°C° 0.3 mm 1 m/s 622 mmHg 89%

    25 Julho, Quinta-feira

    Tempo Temperatura Precipitação Vento Pressão Humidade
    00:00 +14°C° 0.3 mm 0 m/s 622 mmHg 90%
    01:00 +14°C° 0.3 mm 0 m/s 622 mmHg 90%
    02:00 +13°C° 0.1 mm 0 m/s 622 mmHg 90%
    03:00 +13°C° 0.1 mm 0 m/s 622 mmHg 90%
    04:00 +13°C° 0.1 mm 0 m/s 621 mmHg 89%
    05:00 +14°C° 0 mm 0 m/s 622 mmHg 85%
    06:00 +16°C° 0 mm 0 m/s 623 mmHg 81%
    07:00 +18°C° 0 mm 0 m/s 624 mmHg 77%
    08:00 +20°C° 0 mm 0 m/s 624 mmHg 69%
    09:00 +24°C° 0 mm 1 m/s 625 mmHg 62%
    10:00 +25°C° 0 mm 1 m/s 626 mmHg 55%
    11:00 +26°C° 0.5 mm 1 m/s 625 mmHg 53%
    12:00 +26°C° 0.5 mm 1 m/s 625 mmHg 52%
    13:00 +27°C° 0.5 mm 1 m/s 625 mmHg 51%
    14:00 +26°C° 1.3 mm 1 m/s 625 mmHg 52%
    15:00 +26°C° 1.3 mm 1 m/s 625 mmHg 54%
    16:00 +25°C° 1.3 mm 1 m/s 624 mmHg 56%
    17:00 +24°C° 1.3 mm 1 m/s 624 mmHg 65%
    18:00 +22°C° 1.3 mm 1 m/s 623 mmHg 74%
    19:00 +19°C° 1.3 mm 0 m/s 623 mmHg 84%
    20:00 +19°C° 0.6 mm 1 m/s 622 mmHg 85%
    21:00 +18°C° 0.6 mm 1 m/s 622 mmHg 86%
    22:00 +16°C° 0.6 mm 1 m/s 622 mmHg 86%
    23:00 +16°C° 0.1 mm 1 m/s 622 mmHg 87%

    26 Julho, Sexta-feira

    Tempo Temperatura Precipitação Vento Pressão Humidade
    00:00 +15°C° 0.1 mm 1 m/s 621 mmHg 87%
    01:00 +15°C° 0.1 mm 1 m/s 621 mmHg 88%
    02:00 +14°C° 0 mm 1 m/s 621 mmHg 87%
    03:00 +14°C° 0 mm 1 m/s 620 mmHg 87%
    04:00 +14°C° 0 mm 1 m/s 620 mmHg 87%
    05:00 +14°C° 0 mm 0 m/s 620 mmHg 83%
    06:00 +16°C° 0 mm 0 m/s 621 mmHg 79%
    07:00 +18°C° 0 mm 0 m/s 622 mmHg 74%
    08:00 +19°C° 0.1 mm 0 m/s 622 mmHg 68%
    09:00 +21°C° 0.1 mm 0 m/s 623 mmHg 61%
    10:00 +25°C° 0.1 mm 1 m/s 623 mmHg 54%
    11:00 +26°C° 0.5 mm 1 m/s 623 mmHg 50%
    12:00 +26°C° 0.5 mm 1 m/s 623 mmHg 46%
    13:00 +27°C° 0.5 mm 1 m/s 623 mmHg 42%
    14:00 +26°C° 0.4 mm 1 m/s 623 mmHg 47%
    15:00 +25°C° 0.4 mm 1 m/s 622 mmHg 52%
    16:00 +24°C° 0.4 mm 2 m/s 622 mmHg 57%
    17:00 +21°C° 1.7 mm 2 m/s 621 mmHg 67%
    18:00 +21°C° 1.7 mm 1 m/s 621 mmHg 76%
    19:00 +19°C° 1.7 mm 1 m/s 620 mmHg 86%
    20:00 +18°C° 2.3 mm 1 m/s 620 mmHg 89%
    21:00 +15°C° 2.3 mm 1 m/s 620 mmHg 92%
    22:00 +14°C° 2.3 mm 1 m/s 619 mmHg 96%
    23:00 +14°C° 0.1 mm 1 m/s 619 mmHg 94%

    27 Julho, Sábado

    Tempo Temperatura Precipitação Vento Pressão Humidade
    00:00 +13°C° 0.1 mm 1 m/s 618 mmHg 93%
    01:00 +12°C° 0.1 mm 0 m/s 618 mmHg 91%
    02:00 +11°C° 0 mm 0 m/s 618 mmHg 91%
    03:00 +11°C° 0 mm 0 m/s 618 mmHg 91%
    04:00 +11°C° 0 mm 0 m/s 617 mmHg 90%
    05:00 +12°C° 0 mm 0 m/s 618 mmHg 87%
    06:00 +14°C° 0 mm 0 m/s 619 mmHg 84%
    07:00 +16°C° 0 mm 0 m/s 619 mmHg 81%
    08:00 +19°C° 0.4 mm 1 m/s 620 mmHg 75%
    09:00 +20°C° 0.4 mm 1 m/s 620 mmHg 69%
    10:00 +22°C° 0.4 mm 1 m/s 621 mmHg 64%
    11:00 +22°C° 0.3 mm 1 m/s 621 mmHg 60%
    12:00 +23°C° 0.3 mm 1 m/s 621 mmHg 56%
    13:00 +23°C° 0.3 mm 1 m/s 621 mmHg 51%
    14:00 +23°C° 0.4 mm 2 m/s 621 mmHg 53%
    15:00 +23°C° 0.4 mm 2 m/s 621 mmHg 54%
    16:00 +23°C° 0.4 mm 2 m/s 621 mmHg 55%
    17:00 +20°C° 0.8 mm 2 m/s 620 mmHg 65%
    18:00 +20°C° 0.8 mm 1 m/s 620 mmHg 75%
    19:00 +18°C° 0.8 mm 1 m/s 619 mmHg 85%
    20:00 +16°C° 0.1 mm 1 m/s 619 mmHg 86%
    21:00 +14°C° 0.1 mm 1 m/s 618 mmHg 87%
    22:00 +12°C° 0.1 mm 1 m/s 618 mmHg 88%
    23:00 +12°C° 0 mm 1 m/s 618 mmHg 88%
    Mostrar mais